Regional Weather Roundup
Issued by NWS

Home | Current Version | Previous Version | Graphics & Text | Print | Product List | Glossary On
Versions: 1 2 3 4 5 6 7 8 9 10 11 12 13 14 15 16 17 18 19 20 21 22 23 24 25 26 27 28 29 30 31 32 33 34 35 36 37 38 39 40 41 42 43 44 45 46 47 48 49 50
000
ASUS43 KOAX 280102
RWRNE

WEATHER ROUNDUP FOR NEBRASKA
NATIONAL WEATHER SERVICE OMAHA NE
800 PM CDT THU JUL 27 2017

NOTES: SATELLITE DATA IS BEING USED TO AUGMENT CLOUD COVER ABOVE
       12000 FEET.
       "FAIR" INDICATES FEW OR NO CLOUDS BELOW 12,000 FEET WITH NO
       SIGNIFICANT WEATHER AND/OR OBSTRUCTIONS TO VISIBILITY.


NEZ001>004-019>022-054>056-280200-
NEBRASKA PANHANDLE

CITY           SKY/WX    TMP DP  RH WIND       PRES   REMARKS
SCOTTSBLUFF    MOSUNNY   76  62  62 E13       30.03S
ALLIANCE       TSTM      67  66  97 SE26      30.05F FOG
GORDON         FAIR      72  53  49 E10       30.06R
KIMBALL        CLOUDY    69  63  82 S22G33    30.10R
SIDNEY         SUNNY     81  61  50 SE18G26   30.08S
$$

NEZ057>060-069>072-079>082-280200-
SOUTHWEST NEBRASKA

CITY           SKY/WX    TMP DP  RH WIND       PRES   REMARKS
NORTH PLATTE   SUNNY     81  58  45 SE14      30.04R
IMPERIAL       SUNNY     82  60  47 SE7       30.05R
LEXINGTON      CLEAR     78  59  52 E9        30.05S
MCCOOK         SUNNY     83  59  44 E13       30.04S
OGALLALA       SUNNY     85  60  42 SE8       30.05S
$$

NEZ005>010-023>029-035>040-094-280200-
NORTH CENTRAL NEBRASKA

CITY           SKY/WX    TMP DP  RH WIND       PRES   REMARKS
VALENTINE      CLOUDY    80  55  42 SE13      30.06S
AINSWORTH      CLOUDY    73  62  69 E7        30.08F
BROKEN BOW     CLEAR     78  58  49 E10       30.06S
O`NEILL        CLEAR     76  64  67 E5        30.07S
ORD            CLEAR     78  61  55 NE9       30.05R
THEDFORD       SUNNY     79  56  45 E12       30.07S
$$

NEZ041-046>049-061>064-073>077-083>087-280200-
SOUTH CENTRAL NEBRASKA

CITY           SKY/WX    TMP DP  RH WIND       PRES   REMARKS
GRAND ISLAND   CLEAR     78  65  63 E9        30.04S
AURORA         CLEAR     76  65  70 E6        30.03S
HASTINGS       CLEAR     77  63  61 E7        30.04F
HEBRON         CLOUDY    80  64  58 NE7       30.01R
HOLDREGE       CLOUDY    76  62  60 E3        30.05S
KEARNEY        CLEAR     77  64  64 E7        30.05R
YORK           CLEAR     75  66  73 NE7       30.03S
$$

NEZ011>018-030>034-042>045-280200-
NORTHEAST NEBRASKA

CITY           SKY/WX    TMP DP  RH WIND       PRES   REMARKS
NORFOLK        CLOUDY    79  59  50 E6        30.03F
ALBION         PTCLDY    77  65  65 E3        30.05S
BLAIR          CLEAR     80  64  58 NE6       30.01S
COLUMBUS       CLEAR     77  65  66 NE6       30.03S
FREMONT        CLEAR     80  61  53 NE6       30.01F
TEKAMAH        CLEAR     80  66  62 NE6       30.00F
WAYNE          CLEAR     78  65  63 NE6       30.03S
$$

NEZ050>053-065>068-078-088>093-280200-
SOUTHEAST NEBRASKA

CITY           SKY/WX    TMP DP  RH WIND       PRES   REMARKS
LINCOLN        CLEAR     80  64  58 NE8       30.01S
OMAHA EPPLEY   PTCLDY    82  62  50 NE6       29.99S
BEATRICE       CLOUDY    79  65  62 NE7       29.99S
FALLS CITY     CLEAR     80  68  66 N5        29.96S
NEBRASKA CITY  CLEAR     76  68  76 NE6       29.99S
PLATTSMOUTH    CLEAR     78  65  63 CALM      30.00S
$$

NEZ044-045-051>053-067-280200-
OMAHA AREA

CITY           SKY/WX    TMP DP  RH WIND       PRES   REMARKS
OMAHA EPPLEY   PTCLDY    82  62  50 NE6       29.99S
BLAIR          CLEAR     80  64  58 NE6       30.01S
FREMONT        CLEAR     80  61  53 NE6       30.01F
MILLARD        CLEAR     82  64  53 NE5       29.99F
OFFUTT AFB     PTCLDY    79  64  59 NE3       29.98F
PLATTSMOUTH    CLEAR     78  65  63 CALM      30.00S
WAHOO          FAIR      77  66  69 NE3       30.00F
$$




USA.gov is the U.S. government's official web portal to all federal, state and local government web resources and services.